Juan Manuel Galvez International Airport
MHRO : now visible

Airfield :











YOU CAN JOIN US ON...

 
LOGIN :

Register | Disclaimer

   EN    FR    IT 

 









Legend :    VFR   Marginal VFR   IFR   Intensive IFR   Very Intensive IFR
Visi :
Ceiling :
>= 8 km
>= 3000ft
5 to 8 km
1000 to 3000 ft
1500m to 5 km
500 to 1000 ft
800 to 1500m
200 to 500 ft
< 800m
< 200 ft
Symbols :   Thunderstorms  Fog  Heavy snow  Heavy precipitations  Wind > 20 kt






- Airport Elevation : 18 ft
- IATA code : RTB


MHRO - Juan Manuel Galvez International

CURRENT METAR :
  • 202000Z 09010KT 9999 FEW025 29/24 Q1014 A2995 NOSIG

EXPIRED METARs :
  • 201900Z 10010KT 9999 FEW025 29/24 Q1015 A2997 NOSIG
  • 201800Z 10012KT 9999 FEW025 29/24 Q1016 A3000 NOSIG

TAF TAF MHRO
Valid from the 20 at 18:00 until the 21 at 18:00 UTC


201640Z 2018/2118 09008KT 9999 FEW020TCU TX29/2021Z TN26/2012Z
BECMG 2020/2022 05015KT FEW025
BECMG 2101/2103 SCT025 SCT080
BECMG 2106/2108 35004KT 5000 -RA SCT020TCU BKN080



MET'MAP, your aeronautical weather chart ! - Copyright ORBIFLY December 2007 - Disclaimer

ORBIFLY MET'MAP TEAM :

Programming & Development : Alexandra Zaïnal
Concept & original design : Baudouin d'Aumeries
Assistance for programming : Marc-Olivier Méhu
Technical & hardware support : Manuel Goepfert

Contact : metmap@orbifly.com




SOURCES & CREDITS :

   NOAA       Earth
Advisory